CAPE
1676 1503 1430 1483 1220 1277 1382 1543 1815 2053 2054 2163 2046 1967 1903 1766 1721 1668 1578 1603 1582 1308
1705 1575 1675 1774 1437 1277 1524 1442 2026 2049 2000 2105 2194 2171 2181 1903 2124 2006 1849 1772 1757 1591
1670 1725 1737 1675 1642 1581 1505 1562 1985 2115 2069 2046 2093 2162 2208 1970 2023 2152 1900 1818 1987 1970
1579 1512 1632 1623 1645 1750 1729 1727 2012 2262 2170 2128 2098 2036 2156 2203 2226 2357 2271 2024 2173 2311
2093 2137 1811 1754 1749 1923 2066 2062 1974 2210 2350 2402 2381 2292 2275 2365 2456 2654 2587 3063 2509 2337
590 900 1808 2140 2401 2397 2581 2526 2362 2424 2600 2711 2716 2779 2828 2810 2874 2844 2829 2758 2550 2507
1441 1526 1366 1448 1657 2140 2662 2862 2825 2795 2738 2784 2862 2885 2937 2898 2918 2929 2803 2806 2761 2793
2556 2619 2719 2890 2844 2682 2578 2684 2903 2930 3018 3114 2884 2668 2821 2904 2930 3007 2953 2906 2861 2812
2825 3131 3567 3620 3743 3753 3572 3492 3352 3014 3145 3306 3064 2433 2028 2150 2968 2998 3039 3174 3328 3151
2566 2566 3294 3992 4072 4077 4184 4096 3871 3958 3812 3613 3680 2852 2349 2372 2618 3106 3331 3570 3617 3029
989 601 2133 2474 2768 3333 3711 4056 3949 3927 3944 3864 3815 2927 2608 2499 2646 3247 3430 3636 3677 3573
2113 1979 1520 1154 1386 1687 1899 2120 2574 3211 3816 3924 3974 3086 2636 2708 2910 3378 3654 3849 3793 3548
1411 1165 1005 1091 1246 1444 1290 1168 1247 1789 2471 3486 3841 3236 2804 2579 3198 3540 3696 3881 3812 2636
1197 1140 1160 1268 1315 1251 1228 1272 1335 1597 2128 3237 3606 3545 3099 2602 2752 3455 3800 3410 2731 2203
CIN
-127 -97 -75 -58 -40 -28 -12 -21 -34 -47 -42 -48 -39 -35 -24 -13 -14 -6 -11 -9 -5 -8
-155 -147 -78 -74 -95 -67 -40 -26 -44 -51 -50 -47 -43 -30 -18 -15 -8 -11 -12 -10 -8 -8
-146 -148 -129 -90 -85 -80 -77 -53 -27 -61 -64 -56 -56 -40 -27 -26 -31 -15 -21 -16 -8 -8
-151 -110 -108 -108 -80 -73 -84 -79 -38 -43 -54 -63 -61 -58 -39 -41 -34 -16 -21 -29 -18 -11
-173 -107 -109 -116 -91 -70 -58 -71 -75 -32 -43 -49 -53 -52 -56 -39 -29 -22 -24 -9 -26 -34
-316 -207 -127 -117 -71 -58 -46 -68 -58 -38 -34 -41 -41 -30 -31 -27 -21 -17 -19 -26 -27 -36
-197 -179 -186 -178 -139 -97 -65 -56 -42 -40 -44 -42 -46 -32 -27 -20 -21 -20 -21 -21 -20 -15
-120 -68 -72 -68 -86 -92 -117 -103 -69 -53 -48 -39 -59 -63 -69 -50 -32 -26 -19 -14 -9 -12
-21 -13 -0 -1 -26 -37 -51 -54 -68 -77 -66 -50 -70 -116 -150 -112 -40 -28 -12 -0 -5 -13
-105 -18 -1 -0 -5 -11 -9 -23 -52 -40 -37 -58 -73 -113 -94 -74 -41 -8 -0 -0 -2 -6
-49 -293 -47 -41 -90 -52 -33 -19 -49 -42 -39 -56 -61 -108 -71 -77 -55 -9 -2 -1 -1 -5
-57 -38 -91 -202 -199 -177 -169 -147 -133 -85 -31 -30 -52 -86 -92 -63 -42 -11 -8 -1 -1 -4
-221 -235 -257 -266 -231 -206 -237 -241 -210 -177 -99 -27 -22 -73 -112 -97 -27 -0 -0 -0 -1 -30
-217 -262 -281 -251 -239 -239 -224 -193 -171 -142 -89 -25 -9 -15 -46 -77 -51 -4 -0 -0 -6 -23
Wind_Speed
10 5 3 5 6 6 3 4 4 6 8 8 7 6 7 8 7 7 6 5 6 7
12 10 5 4 5 7 5 8 7 7 10 10 9 9 8 9 6 7 6 4 3 7
13 9 8 1 3 3 4 6 9 7 7 8 9 9 8 6 2 4 5 3 2 3
13 13 13 3 6 3 1 6 8 7 7 7 9 10 9 5 3 3 1 4 2 5
14 8 6 7 6 4 4 2 5 7 7 7 9 11 10 8 5 5 1 3 4 7
11 5 3 6 8 5 7 5 1 4 4 3 3 4 5 7 5 5 2 5 2 6
5 6 8 10 10 8 8 5 2 3 2 2 2 3 2 2 6 6 6 3 4 5
8 11 11 11 11 9 10 9 5 4 3 1 2 1 5 4 6 5 3 1 2 3
8 6 6 2 12 9 6 10 14 11 11 6 7 4 7 3 2 2 2 3 1 1
25 25 12 2 9 11 11 13 14 14 12 9 5 9 12 10 6 7 8 6 5 6
38 39 10 12 22 17 20 18 17 17 14 11 10 15 13 15 9 11 11 11 10 10
38 28 23 26 30 28 23 25 22 20 17 13 14 21 18 21 13 12 13 14 14 16
37 36 32 32 30 32 32 31 29 26 23 20 19 24 26 25 19 19 23 23 21 24
34 41 42 44 46 42 39 36 38 35 33 28 27 29 33 31 22 24 30 35 39 43
Wind_Direction
3 329 337 323 293 279 245 258 237 271 284 296 293 293 293 286 290 305 314 339 332 307
343 343 340 342 291 274 257 231 243 258 271 275 277 277 274 265 281 289 285 296 307 305
317 316 320 70 35 296 249 232 228 239 248 256 271 273 275 263 287 269 252 263 349 350
283 284 298 294 98 64 242 235 225 217 227 241 254 259 263 254 225 276 277 200 35 58
234 247 258 282 70 58 61 296 223 214 236 250 262 268 268 253 237 244 23 57 29 35
188 201 257 318 351 21 25 43 143 198 229 258 282 281 270 253 224 204 126 133 338 19
63 14 1 327 333 352 354 352 108 163 166 132 81 36 80 101 149 147 143 111 20 28
24 24 4 343 332 338 321 306 278 203 213 272 299 48 36 87 122 129 156 8 14 35
281 208 163 346 323 322 300 289 277 263 249 256 271 314 336 1 247 198 235 244 251 278
273 209 186 29 297 302 295 269 264 265 260 262 250 281 286 288 259 255 254 261 248 262
292 306 321 309 285 297 274 263 260 253 246 252 246 264 272 283 287 272 271 276 275 273
284 298 292 269 268 262 283 240 245 247 241 240 240 269 275 273 274 279 283 281 281 282
263 263 264 250 263 259 249 239 248 250 236 245 241 259 274 276 261 275 274 278 273 273
259 258 253 253 258 261 252 240 233 241 246 245 246 253 268 277 273 272 274 271 271 268